Weather reports worldwide

Advertisment
Aonach Mor, United Kingdom (3041): temperature & dewpoint: 23.04.2017 06:00:00 - 29.04.2017 06:00:00 (BST)Aonach Mor, United Kingdom (3041): wind speed & gusts: 23.04.2017 06:00:00 - 29.04.2017 06:00:00 (BST)Aonach Mor, United Kingdom (3041): wind direction: 23.04.2017 06:00:00 - 29.04.2017 06:00:00 (BST)
Date & Time tt [°C] td [°C] ff [km/h] ff [kn] fx [km/h] fx [kn] dd
29.04.2017 06:00:00 -0,3 -1,1 24 13 - - SSW
29.04.2017 05:00:00 -0,5 -1,5 29 16 50 27 SSW
29.04.2017 04:00:00 -0,4 -1,9 24 13 - - SSW
29.04.2017 03:00:00 -0,4 -1,4 26 14 - - SSW
29.04.2017 02:00:00 -0,3 -1,9 28 15 - - SSW
29.04.2017 01:00:00 -0,4 -1,5 24 13 - - SSW
29.04.2017 00:00:00 -0,4 -1,6 24 13 - - SSW
28.04.2017 23:00:00 -0,2 -2,2 31 17 52 28 SSW
28.04.2017 22:00:00 -0,3 -1,8 39 21 55 30 SSW
28.04.2017 21:00:00 -0,2 -1,3 35 19 57 31 SSW
28.04.2017 20:00:00 0,2 -1,3 44 24 55 30 SSW
28.04.2017 19:00:00 0,7 -0,9 28 15 - - SSW
28.04.2017 18:00:00 1,1 -0,5 28 15 - - SW
28.04.2017 17:00:00 2,1 -1,4 22 12 - - SSW
28.04.2017 16:00:00 2,6 -1,7 26 14 - - SSW
28.04.2017 15:00:00 2,2 -1,2 28 15 - - SSW
28.04.2017 14:00:00 2,1 -1,5 - - - - -
28.04.2017 13:00:00 2,1 -3,3 - - - - -
28.04.2017 12:00:00 3,9 -2,8 - - - - -
28.04.2017 11:00:00 3,6 -8,2 - - - - -
28.04.2017 10:00:00 1,2 -7,8 - - - - -
28.04.2017 09:00:00 0,3 -3,1 - - - - -
28.04.2017 08:00:00 - - - - - - -
28.04.2017 07:00:00 - - - - - - -
28.04.2017 06:00:00 - - - - - - -
28.04.2017 05:00:00 - - - - - - -
28.04.2017 04:00:00 - - - - - - -
28.04.2017 03:00:00 - - - - - - -
28.04.2017 02:00:00 - - - - - - -
28.04.2017 01:00:00 - - - - - - -
28.04.2017 00:00:00 - - - - - - -
27.04.2017 23:00:00 - - - - - - -
27.04.2017 22:00:00 - - - - - - -
27.04.2017 21:00:00 - - - - - - -
27.04.2017 20:00:00 - - - - - - -
27.04.2017 19:00:00 - - - - - - -
27.04.2017 18:00:00 - - - - - - -
27.04.2017 17:00:00 - - - - - - -
27.04.2017 16:00:00 - - - - - - -
27.04.2017 15:00:00 - - - - - - -
27.04.2017 14:00:00 - - - - - - -
27.04.2017 13:00:00 - - - - - - -
27.04.2017 12:00:00 - - - - - - -
27.04.2017 11:00:00 - - - - - - -
27.04.2017 10:00:00 - - - - - - -
27.04.2017 09:00:00 - - - - - - -
27.04.2017 08:00:00 - - - - - - -
27.04.2017 07:00:00 - - - - - - -
27.04.2017 06:00:00 - - - - - - -
27.04.2017 05:00:00 - - - - - - -
27.04.2017 04:00:00 - - - - - - -
27.04.2017 03:00:00 - - - - - - -
27.04.2017 02:00:00 - - - - - - -
27.04.2017 01:00:00 - - - - - - -
27.04.2017 00:00:00 - - - - - - -
26.04.2017 23:00:00 - - - - - - -
26.04.2017 22:00:00 - - - - - - -
26.04.2017 21:00:00 -0,4 -0,4 - - - - -
26.04.2017 20:00:00 -0,4 -1,0 - - - - -
26.04.2017 19:00:00 -0,2 -1,3 - - - - -
26.04.2017 18:00:00 1,0 -1,0 - - - - -
26.04.2017 17:00:00 0,0 -4,2 - - - - -
26.04.2017 16:00:00 -0,1 -4,5 - - - - -
26.04.2017 15:00:00 -0,6 -4,9 - - - - -
26.04.2017 14:00:00 -1,4 -5,0 - - - - -
26.04.2017 13:00:00 -1,6 -5,7 - - - - -
26.04.2017 12:00:00 -2,5 -4,7 - - - - -
26.04.2017 11:00:00 -2,8 -3,4 - - - - -
26.04.2017 10:00:00 -3,6 -4,4 - - - - -
26.04.2017 09:00:00 -4,0 -4,9 - - - - -
26.04.2017 08:00:00 -4,7 -5,3 - - - - -
26.04.2017 07:00:00 -5,4 -5,7 - - - - -
26.04.2017 06:00:00 -5,9 -6,5 - - - - -
26.04.2017 05:00:00 -6,0 -6,7 - - - - -
26.04.2017 04:00:00 -6,1 -6,7 - - - - -
26.04.2017 03:00:00 -5,4 -5,9 - - - - -
26.04.2017 02:00:00 -5,5 -5,9 - - - - -
26.04.2017 01:00:00 -5,5 -6,0 - - - - -
26.04.2017 00:00:00 -5,4 -5,8 - - - - -
25.04.2017 23:00:00 -5,4 -5,8 - - - - -
25.04.2017 22:00:00 -5,7 -6,2 - - - - -
25.04.2017 21:00:00 -4,4 -4,7 - - - - -
25.04.2017 20:00:00 -4,7 -5,5 - - - - -
25.04.2017 19:00:00 -4,4 -5,2 - - - - -
25.04.2017 18:00:00 -4,4 -4,8 - - - - -
25.04.2017 17:00:00 -3,2 -3,2 - - - - -
25.04.2017 16:00:00 -3,9 -3,9 - - - - -
25.04.2017 15:00:00 -3,4 -4,3 - - - - -
25.04.2017 14:00:00 -3,4 -4,5 - - - - -
25.04.2017 13:00:00 -2,8 -3,3 - - - - -
25.04.2017 12:00:00 -3,3 -3,7 - - - - -
25.04.2017 11:00:00 -3,8 -4,1 - - - - -
25.04.2017 10:00:00 -4,1 -4,4 - - - - -
25.04.2017 09:00:00 -4,3 -4,6 - - - - -
25.04.2017 08:00:00 -5,6 -6,0 - - - - -
25.04.2017 07:00:00 -5,6 -6,0 - - - - -
25.04.2017 06:00:00 -5,7 -6,2 - - - - -
25.04.2017 05:00:00 -5,1 -5,5 - - - - -
25.04.2017 04:00:00 -5,1 -5,5 - - - - -
25.04.2017 03:00:00 -6,1 -6,5 - - - - -
25.04.2017 02:00:00 -6,4 -6,8 - - - - -
25.04.2017 01:00:00 -6,7 -7,2 - - - - -
25.04.2017 00:00:00 -6,6 -7,2 - - - - -
24.04.2017 23:00:00 -6,5 -7,1 - - - - -
24.04.2017 22:00:00 -5,5 -5,9 - - - - -
24.04.2017 21:00:00 -5,1 -5,5 - - - - -
24.04.2017 20:00:00 -5,5 -5,8 - - - - -
24.04.2017 19:00:00 -6,1 -6,6 - - - - -
24.04.2017 18:00:00 -6,5 -7,6 - - - - -
24.04.2017 17:00:00 -6,3 -7,4 - - - - -
24.04.2017 16:00:00 -6,4 -7,7 - - - - -
24.04.2017 15:00:00 -6,4 -6,9 - - - - -
24.04.2017 14:00:00 -6,0 -6,5 - - - - -
24.04.2017 13:00:00 -5,7 -6,1 - - - - -
24.04.2017 12:00:00 -5,0 -5,4 - - - - -
24.04.2017 11:00:00 -4,8 -5,2 - - - - -
24.04.2017 10:00:00 -4,5 -4,8 - - - - -
24.04.2017 09:00:00 -5,1 -5,5 - - - - -
24.04.2017 08:00:00 -4,4 -4,7 - - - - -
24.04.2017 07:00:00 -4,8 -5,1 - - - - -
24.04.2017 06:00:00 -4,6 -5,0 - - - - -
24.04.2017 05:00:00 -4,2 -4,6 - - - - -
24.04.2017 04:00:00 -3,8 -4,1 - - - - -
24.04.2017 03:00:00 -2,6 -2,6 - - - - -
24.04.2017 02:00:00 -1,8 -1,8 - - - - -
24.04.2017 01:00:00 -1,1 -1,1 - - - - -
24.04.2017 00:00:00 0,5 0,5 - - - - -
23.04.2017 23:00:00 0,6 0,6 - - - - -
23.04.2017 22:00:00 0,7 0,7 - - - - -
23.04.2017 21:00:00 0,9 0,9 - - - - -
23.04.2017 20:00:00 -0,1 -0,1 - - - - -
23.04.2017 19:00:00 -0,5 -0,5 - - - - -
23.04.2017 18:00:00 -0,6 -0,6 - - - - -
23.04.2017 17:00:00 -0,9 -1,7 - - - - -
23.04.2017 16:00:00 -1,1 -2,0 - - - - -
23.04.2017 15:00:00 -1,1 -2,3 - - - - -
23.04.2017 14:00:00 -1,3 -2,1 - - - - -
23.04.2017 13:00:00 -1,4 -2,4 - - - - -
23.04.2017 12:00:00 -1,3 -1,6 - - - - -
23.04.2017 11:00:00 -1,5 -1,9 - - - - -
23.04.2017 10:00:00 -1,9 -2,2 - - - - -
23.04.2017 09:00:00 -2,3 -2,6 - - - - -
23.04.2017 08:00:00 -2,3 -2,3 - - - - -
23.04.2017 07:00:00 -2,3 -2,3 - - - - -
23.04.2017 06:00:00 -2,5 -2,5 - - - - -

tt = temperature
td = dewpoint
ff = wind speed
fx = gusts
dd = wind direction

Next stations